TimeEDT,TemperatureF,Dew PointF,Humidity,Sea Level PressureIn,VisibilityMPH,Wind Direction,Wind SpeedMPH,Gust SpeedMPH,PrecipitationIn,Events,Conditions,WindDirDegrees,DateUTC
12:56 AM,68.0,66.9,96,29.87,6.0,Calm,Calm,-,N/A,,Overcast,0,2013-06-27 04:56:00
1:27 AM,66.2,64.4,94,29.83,5.0,NE,5.8,-,N/A,,Overcast,40,2013-06-27 05:27:00
1:56 AM,64.9,64.9,100,29.87,4.0,NNE,5.8,-,N/A,,Overcast,30,2013-06-27 05:56:00
2:14 AM,64.4,64.4,100,29.83,2.0,NE,5.8,-,N/A,,Overcast,50,2013-06-27 06:14:00
2:35 AM,64.4,62.6,94,29.83,1.5,NE,5.8,-,N/A,,Overcast,40,2013-06-27 06:35:00
2:56 AM,63.0,63.0,100,29.85,1.5,NE,4.6,-,N/A,,Overcast,40,2013-06-27 06:56:00
3:42 AM,62.6,62.6,100,29.82,2.0,ENE,5.8,-,N/A,,Overcast,60,2013-06-27 07:42:00
3:56 AM,63.0,63.0,100,29.85,2.5,NE,5.8,-,N/A,,Overcast,50,2013-06-27 07:56:00
4:24 AM,62.6,62.6,100,29.82,1.5,East,9.2,-,N/A,,Overcast,90,2013-06-27 08:24:00
4:56 AM,61.0,61.0,100,29.84,1.8,NE,9.2,-,N/A,,Overcast,50,2013-06-27 08:56:00
5:56 AM,61.0,61.0,100,29.88,1.2,ENE,5.8,-,N/A,,Overcast,70,2013-06-27 09:56:00
6:18 AM,60.8,60.8,100,29.86,0.8,East,4.6,-,N/A,,Overcast,80,2013-06-27 10:18:00
6:44 AM,60.8,60.8,100,29.86,1.5,East,4.6,-,N/A,,Overcast,80,2013-06-27 10:44:00
6:51 AM,60.8,60.8,100,29.86,0.8,East,3.5,-,N/A,,Mist,90,2013-06-27 10:51:00
6:56 AM,61.0,61.0,100,29.90,0.8,East,4.6,-,N/A,,Mist,80,2013-06-27 10:56:00
7:03 AM,60.8,60.8,100,29.86,2.5,ENE,4.6,-,N/A,,Overcast,60,2013-06-27 11:03:00
7:12 AM,60.8,60.8,100,29.86,3.0,ENE,5.8,-,N/A,,Overcast,60,2013-06-27 11:12:00
7:56 AM,61.0,61.0,100,29.89,10.0,East,4.6,-,N/A,,Overcast,90,2013-06-27 11:56:00
8:04 AM,62.6,62.6,100,29.86,10.0,SE,4.6,-,N/A,,Overcast,130,2013-06-27 12:04:00
8:56 AM,64.9,62.1,90,29.88,10.0,East,4.6,-,N/A,,Overcast,90,2013-06-27 12:56:00
9:56 AM,66.0,63.0,90,29.88,10.0,ESE,6.9,-,N/A,,Overcast,120,2013-06-27 13:56:00
10:56 AM,68.0,64.0,87,29.87,10.0,East,5.8,-,N/A,,Overcast,100,2013-06-27 14:56:00
11:05 AM,68.0,64.4,88,29.84,10.0,East,4.6,-,N/A,,Overcast,100,2013-06-27 15:05:00
11:56 AM,70.0,64.9,84,29.86,10.0,Variable,4.6,-,N/A,,Overcast,0,2013-06-27 15:56:00
12:03 PM,69.8,64.4,83,29.82,10.0,ENE,4.6,-,N/A,,Overcast,70,2013-06-27 16:03:00
12:56 PM,71.1,66.0,84,29.85,10.0,SE,3.5,-,N/A,,Overcast,130,2013-06-27 16:56:00
1:56 PM,73.0,66.0,79,29.83,10.0,East,4.6,-,N/A,,Overcast,80,2013-06-27 17:56:00
2:28 PM,71.6,66.2,83,29.80,10.0,ESE,5.8,-,N/A,,Overcast,110,2013-06-27 18:28:00
2:56 PM,71.1,66.0,84,29.83,8.0,ESE,5.8,-,0.01,Rain,Light Rain,120,2013-06-27 18:56:00
3:44 PM,68.0,66.2,94,29.80,5.0,SSE,9.2,-,0.04,Rain,Light Rain,150,2013-06-27 19:44:00
3:56 PM,68.0,66.0,93,29.83,5.0,SE,8.1,-,0.05,Rain,Light Rain,130,2013-06-27 19:56:00
4:03 PM,68.0,66.2,94,29.79,4.0,SE,8.1,-,0.01,Rain,Rain,130,2013-06-27 20:03:00
4:23 PM,66.2,66.2,100,29.79,5.0,ESE,10.4,-,0.03,Rain,Light Rain,120,2013-06-27 20:23:00
4:56 PM,66.0,64.9,96,29.83,5.0,ENE,8.1,-,0.03,Rain,Light Rain,60,2013-06-27 20:56:00
5:56 PM,64.9,64.9,100,29.83,3.0,East,9.2,-,0.01,,Overcast,90,2013-06-27 21:56:00
6:03 PM,64.4,64.4,100,29.79,8.0,East,8.1,-,N/A,,Overcast,100,2013-06-27 22:03:00
6:56 PM,64.9,64.9,100,29.82,3.0,East,8.1,-,N/A,,Overcast,100,2013-06-27 22:56:00
7:06 PM,64.4,64.4,100,29.78,4.0,East,6.9,-,N/A,,Overcast,90,2013-06-27 23:06:00
7:53 PM,64.4,64.4,100,29.78,2.0,East,8.1,-,N/A,,Overcast,90,2013-06-27 23:53:00
7:56 PM,64.0,64.0,100,29.81,2.0,East,8.1,-,N/A,,Overcast,80,2013-06-27 23:56:00
8:03 PM,64.4,64.4,100,29.78,7.0,East,6.9,-,N/A,,Overcast,80,2013-06-28 00:03:00
8:56 PM,64.0,64.0,100,29.82,4.0,East,4.6,-,N/A,,Overcast,90,2013-06-28 00:56:00
9:31 PM,64.4,64.4,100,29.78,5.0,East,5.8,-,0.00,,Overcast,100,2013-06-28 01:31:00
9:56 PM,64.0,64.0,100,29.82,4.0,East,5.8,-,0.00,,Overcast,80,2013-06-28 01:56:00
10:56 PM,63.0,63.0,100,29.80,6.0,ENE,5.8,-,N/A,,Overcast,70,2013-06-28 02:56:00
11:28 PM,64.4,62.6,94,29.76,10.0,East,8.1,-,N/A,,Overcast,80,2013-06-28 03:28:00
11:56 PM,63.0,63.0,100,29.79,10.0,East,8.1,-,N/A,,Overcast,80,2013-06-28 03:56:00